Year,Month,Day,Hour,Minute,Value (Times are PST for temperature in C)
2009,09,22,00,00,13.40
2009,09,22,00,01,13.30
2009,09,22,00,02,13.40
2009,09,22,00,03,13.30
2009,09,22,00,04,13.30
2009,09,22,00,05,13.30
2009,09,22,00,06,13.30
2009,09,22,00,07,13.30
2009,09,22,00,08,13.30
2009,09,22,00,09,13.30
2009,09,22,00,10,13.30
2009,09,22,00,11,13.30
2009,09,22,00,12,13.30
2009,09,22,00,13,13.30
2009,09,22,00,14,13.30
2009,09,22,00,15,13.40
2009,09,22,00,16,13.40
2009,09,22,00,17,13.40
2009,09,22,00,18,13.50
2009,09,22,00,19,13.60
2009,09,22,00,20,13.60
2009,09,22,00,21,13.70
2009,09,22,00,22,13.80
2009,09,22,00,23,13.90
2009,09,22,00,24,13.90
2009,09,22,00,25,13.90
2009,09,22,00,26,14.00
2009,09,22,00,27,14.00
2009,09,22,00,28,14.00
2009,09,22,00,29,14.00
2009,09,22,00,30,14.00
2009,09,22,00,31,13.90
2009,09,22,00,32,13.90
2009,09,22,00,33,13.90
2009,09,22,00,34,13.90
2009,09,22,00,35,13.90
2009,09,22,00,36,13.90
2009,09,22,00,37,13.80
2009,09,22,00,38,13.80
2009,09,22,00,39,13.80
2009,09,22,00,40,13.70
2009,09,22,00,41,13.70
2009,09,22,00,42,13.70
2009,09,22,00,43,13.60
2009,09,22,00,44,13.60
2009,09,22,00,45,13.50
2009,09,22,00,46,13.50
2009,09,22,00,47,13.50
2009,09,22,00,48,13.40
2009,09,22,00,49,13.30
2009,09,22,00,50,13.20
2009,09,22,00,51,13.20
2009,09,22,00,52,13.10
2009,09,22,00,53,13.00
2009,09,22,00,54,13.00
2009,09,22,00,55,13.00
2009,09,22,00,56,12.90
2009,09,22,00,57,12.90
2009,09,22,00,58,12.80
2009,09,22,00,59,12.80
2009,09,22,01,00,12.80
2009,09,22,01,01,12.80
2009,09,22,01,02,12.80
2009,09,22,01,03,12.80
2009,09,22,01,04,12.80
2009,09,22,01,05,12.80
2009,09,22,01,06,12.80
2009,09,22,01,07,12.80
2009,09,22,01,08,12.80
2009,09,22,01,09,12.70
2009,09,22,01,10,12.60
2009,09,22,01,11,12.60
2009,09,22,01,12,12.60
2009,09,22,01,13,12.50
2009,09,22,01,14,12.50
2009,09,22,01,15,12.50
2009,09,22,01,16,12.40
2009,09,22,01,17,12.40
2009,09,22,01,18,12.30
2009,09,22,01,19,12.30
2009,09,22,01,20,12.20
2009,09,22,01,21,12.20
2009,09,22,01,22,12.10
2009,09,22,01,23,12.10
2009,09,22,01,24,12.00
2009,09,22,01,25,12.00
2009,09,22,01,26,12.00
2009,09,22,01,27,12.00
2009,09,22,01,28,12.00
2009,09,22,01,29,12.00
2009,09,22,01,30,12.00
2009,09,22,01,31,12.00
2009,09,22,01,32,12.00
2009,09,22,01,33,12.10
2009,09,22,01,34,12.10
2009,09,22,01,35,12.20
2009,09,22,01,36,12.30
2009,09,22,01,37,12.30
2009,09,22,01,38,12.40
2009,09,22,01,39,12.50
2009,09,22,01,40,12.50
2009,09,22,01,41,12.60
2009,09,22,01,42,12.60
2009,09,22,01,43,12.60
2009,09,22,01,44,12.70
2009,09,22,01,45,12.70
2009,09,22,01,46,12.80
2009,09,22,01,47,12.80
2009,09,22,01,48,12.70
2009,09,22,01,49,12.60
2009,09,22,01,50,12.50
2009,09,22,01,51,12.50
2009,09,22,01,52,12.40
2009,09,22,01,53,12.30
2009,09,22,01,54,12.30
2009,09,22,01,55,12.20
2009,09,22,01,56,12.10
2009,09,22,01,57,12.10
2009,09,22,01,58,12.00
2009,09,22,01,59,11.90
2009,09,22,02,00,11.90
2009,09,22,02,01,11.90
2009,09,22,02,02,11.80
2009,09,22,02,03,11.90
2009,09,22,02,04,11.90
2009,09,22,02,05,11.90
2009,09,22,02,06,12.00
2009,09,22,02,07,12.00
2009,09,22,02,08,12.00
2009,09,22,02,09,12.00
2009,09,22,02,10,12.00
2009,09,22,02,11,12.00
2009,09,22,02,12,12.00
2009,09,22,02,13,12.00
2009,09,22,02,14,12.10
2009,09,22,02,15,12.10
2009,09,22,02,16,12.10
2009,09,22,02,17,12.10
2009,09,22,02,18,12.10
2009,09,22,02,19,12.10
2009,09,22,02,20,12.10
2009,09,22,02,21,12.10
2009,09,22,02,22,12.10
2009,09,22,02,23,12.10
2009,09,22,02,24,12.10
2009,09,22,02,25,12.10
2009,09,22,02,26,12.20
2009,09,22,02,27,12.20
2009,09,22,02,28,12.20
2009,09,22,02,29,12.20
2009,09,22,02,30,12.20
2009,09,22,02,31,12.10
2009,09,22,02,32,12.10
2009,09,22,02,33,12.10
2009,09,22,02,34,12.00
2009,09,22,02,35,12.00
2009,09,22,02,36,12.00
2009,09,22,02,37,12.00
2009,09,22,02,38,12.00
2009,09,22,02,39,12.00
2009,09,22,02,40,12.00
2009,09,22,02,41,12.00
2009,09,22,02,42,12.10
2009,09,22,02,43,12.10
2009,09,22,02,44,12.10
2009,09,22,02,45,12.10
2009,09,22,02,46,12.10
2009,09,22,02,47,12.10
2009,09,22,02,48,12.10
2009,09,22,02,49,12.10
2009,09,22,02,50,12.10
2009,09,22,02,51,12.10
2009,09,22,02,52,12.20
2009,09,22,02,53,12.20
2009,09,22,02,54,12.10
2009,09,22,02,55,12.10
2009,09,22,02,56,12.00
2009,09,22,02,57,12.00
2009,09,22,02,58,12.00
2009,09,22,02,59,12.00
2009,09,22,03,00,11.90
2009,09,22,03,01,11.90
2009,09,22,03,02,11.90
2009,09,22,03,03,11.80
2009,09,22,03,04,11.80
2009,09,22,03,05,11.80
2009,09,22,03,06,11.80
2009,09,22,03,07,11.80
2009,09,22,03,08,11.80
2009,09,22,03,09,11.80
2009,09,22,03,10,11.80
2009,09,22,03,11,11.90
2009,09,22,03,12,11.90
2009,09,22,03,13,12.00
2009,09,22,03,14,12.00
2009,09,22,03,15,12.10
2009,09,22,03,16,12.10
2009,09,22,03,17,12.20
2009,09,22,03,18,12.20
2009,09,22,03,19,12.20
2009,09,22,03,20,12.10
2009,09,22,03,21,12.00
2009,09,22,03,22,12.00
2009,09,22,03,23,12.00
2009,09,22,03,24,11.90
2009,09,22,03,25,11.90
2009,09,22,03,26,11.80
2009,09,22,03,27,11.80
2009,09,22,03,28,11.80
2009,09,22,03,29,11.70
2009,09,22,03,30,11.60
2009,09,22,03,31,11.60
2009,09,22,03,32,11.60
2009,09,22,03,33,11.50
2009,09,22,03,34,11.40
2009,09,22,03,35,11.40
2009,09,22,03,36,11.40
2009,09,22,03,37,11.30
2009,09,22,03,38,11.20
2009,09,22,03,39,11.10
2009,09,22,03,40,11.10
2009,09,22,03,41,11.10
2009,09,22,03,42,11.10
2009,09,22,03,43,11.10
2009,09,22,03,44,11.10
2009,09,22,03,45,11.10
2009,09,22,03,46,11.10
2009,09,22,03,47,11.10
2009,09,22,03,48,11.10
2009,09,22,03,49,11.10
2009,09,22,03,50,11.10
2009,09,22,03,51,11.10
2009,09,22,03,52,11.10
2009,09,22,03,53,11.10
2009,09,22,03,54,11.10
2009,09,22,03,55,11.00
2009,09,22,03,56,10.90
2009,09,22,03,57,10.90
2009,09,22,03,58,10.90
2009,09,22,03,59,10.90
2009,09,22,04,00,10.90
2009,09,22,04,01,10.90
2009,09,22,04,02,10.90
2009,09,22,04,03,10.90
2009,09,22,04,04,10.90
2009,09,22,04,05,10.90
2009,09,22,04,07,10.80
2009,09,22,04,08,10.80
2009,09,22,04,09,10.80
2009,09,22,04,10,10.80
2009,09,22,04,11,10.70
2009,09,22,04,12,10.60
2009,09,22,04,13,10.60
2009,09,22,04,14,10.60
2009,09,22,04,15,10.60
2009,09,22,04,16,10.70
2009,09,22,04,17,10.70
2009,09,22,04,18,10.60
2009,09,22,04,19,10.60
2009,09,22,04,20,10.60
2009,09,22,04,21,10.60
2009,09,22,04,22,10.60
2009,09,22,04,23,10.60
2009,09,22,04,24,10.60
2009,09,22,04,25,10.60
2009,09,22,04,26,10.50
2009,09,22,04,27,10.40
2009,09,22,04,28,10.40
2009,09,22,04,29,10.40
2009,09,22,04,30,10.40
2009,09,22,04,31,10.50
2009,09,22,04,32,10.60
2009,09,22,04,33,10.60
2009,09,22,04,34,10.60
2009,09,22,04,35,10.80
2009,09,22,04,36,10.90
2009,09,22,04,37,10.90
2009,09,22,04,38,10.90
2009,09,22,04,39,11.00
2009,09,22,04,40,11.10
2009,09,22,04,41,11.10
2009,09,22,04,42,11.00
2009,09,22,04,43,10.90
2009,09,22,04,44,10.90
2009,09,22,04,45,10.90
2009,09,22,04,46,10.90
2009,09,22,04,47,10.90
2009,09,22,04,48,11.00
2009,09,22,04,49,11.10
2009,09,22,04,50,11.10
2009,09,22,04,51,11.00
2009,09,22,04,52,10.90
2009,09,22,04,53,10.90
2009,09,22,04,54,10.90
2009,09,22,04,55,10.90
2009,09,22,04,56,11.10
2009,09,22,04,57,11.10
2009,09,22,04,58,11.10
2009,09,22,04,59,11.10
2009,09,22,05,00,11.10
2009,09,22,05,01,11.10
2009,09,22,05,02,11.10
2009,09,22,05,03,11.10
2009,09,22,05,04,11.10
2009,09,22,05,05,11.10
2009,09,22,05,06,11.10
2009,09,22,05,07,11.10
2009,09,22,05,08,11.10
2009,09,22,05,09,11.10
2009,09,22,05,10,11.10
2009,09,22,05,11,11.10
2009,09,22,05,45,10.80
2009,09,22,05,46,10.80
2009,09,22,05,47,10.80
2009,09,22,05,48,10.80
2009,09,22,05,49,10.80
2009,09,22,05,50,10.70
2009,09,22,05,51,10.70
2009,09,22,05,52,10.70
2009,09,22,05,53,10.70
2009,09,22,05,54,10.60
2009,09,22,05,55,10.60
2009,09,22,05,56,10.60
2009,09,22,05,57,10.60
2009,09,22,05,58,10.60
2009,09,22,05,59,10.60
2009,09,22,06,00,10.60
2009,09,22,06,01,10.60
2009,09,22,06,02,10.60
2009,09,22,06,03,10.60
2009,09,22,06,04,10.60
2009,09,22,06,05,10.60
2009,09,22,06,06,10.60
2009,09,22,06,07,10.60
2009,09,22,06,08,10.60
2009,09,22,06,09,10.60
2009,09,22,06,10,10.60
2009,09,22,06,11,10.60
2009,09,22,06,12,10.60
2009,09,22,06,13,10.60
2009,09,22,06,14,10.60
2009,09,22,06,15,10.50
2009,09,22,06,16,10.40
2009,09,22,06,17,10.40
2009,09,22,06,18,10.40
2009,09,22,06,19,10.40
2009,09,22,06,20,10.40
2009,09,22,06,21,10.40
2009,09,22,06,22,10.40
2009,09,22,06,23,10.40
2009,09,22,06,24,10.50
2009,09,22,06,25,10.60
2009,09,22,06,26,10.60
2009,09,22,06,27,10.60
2009,09,22,06,28,10.60
2009,09,22,06,29,10.60
2009,09,22,06,30,10.60
2009,09,22,06,31,10.60
2009,09,22,06,32,10.70
2009,09,22,06,33,10.70
2009,09,22,06,34,10.70
2009,09,22,06,35,10.70
2009,09,22,06,36,10.70
2009,09,22,06,37,10.80
2009,09,22,06,38,10.80
2009,09,22,06,39,10.80
2009,09,22,06,40,10.80
2009,09,22,06,41,10.90
2009,09,22,06,42,10.90
2009,09,22,06,43,10.90
2009,09,22,06,44,10.80
2009,09,22,06,45,10.80
2009,09,22,06,46,10.60
2009,09,22,06,47,10.60
2009,09,22,06,48,10.40
2009,09,22,06,49,10.30
2009,09,22,06,50,10.20
2009,09,22,06,51,10.20
2009,09,22,06,52,10.10
2009,09,22,06,53,10.10
2009,09,22,06,54,10.10
2009,09,22,06,55,10.10
2009,09,22,06,56,10.10
2009,09,22,06,57,10.10
2009,09,22,06,58,10.10
2009,09,22,06,59,10.10
2009,09,22,07,00,10.10
2009,09,22,07,01,10.20
2009,09,22,07,02,10.30
2009,09,22,07,03,10.40
2009,09,22,07,04,10.40
2009,09,22,07,05,10.40
2009,09,22,07,06,10.40
2009,09,22,07,07,10.40
2009,09,22,07,08,10.40
2009,09,22,07,09,10.30
2009,09,22,07,10,10.30
2009,09,22,07,11,10.30
2009,09,22,07,12,10.30
2009,09,22,07,13,10.30
2009,09,22,07,14,10.30
2009,09,22,07,15,10.30
2009,09,22,07,16,10.30
2009,09,22,07,17,10.30
2009,09,22,07,18,10.20
2009,09,22,07,19,10.30
2009,09,22,07,20,10.30
2009,09,22,07,21,10.30
2009,09,22,07,22,10.30
2009,09,22,07,23,10.40
2009,09,22,07,24,10.40
2009,09,22,07,25,10.40
2009,09,22,07,26,10.40
2009,09,22,07,27,10.40
2009,09,22,07,28,10.30
2009,09,22,07,29,10.40
2009,09,22,07,30,10.40
2009,09,22,07,31,10.40
2009,09,22,07,32,10.40
2009,09,22,07,33,10.40
2009,09,22,07,34,10.40
2009,09,22,07,35,10.40
2009,09,22,07,36,10.40
2009,09,22,07,37,10.50
2009,09,22,07,38,10.60
2009,09,22,07,39,10.60
2009,09,22,07,40,10.60
2009,09,22,07,41,10.60
2009,09,22,07,42,10.60
2009,09,22,07,43,10.60
2009,09,22,07,44,10.60
2009,09,22,07,45,10.60
2009,09,22,07,46,10.60
2009,09,22,07,47,10.60
2009,09,22,07,48,10.60
2009,09,22,07,49,10.60
2009,09,22,07,50,10.60
2009,09,22,07,51,10.60
2009,09,22,07,52,10.70
2009,09,22,07,53,10.70
2009,09,22,07,54,10.70
2009,09,22,07,55,10.80
2009,09,22,07,56,10.80
2009,09,22,07,57,10.90
2009,09,22,07,58,10.90
2009,09,22,07,59,10.90
2009,09,22,08,00,11.00
2009,09,22,08,01,11.10
2009,09,22,08,02,11.10
2009,09,22,08,03,11.20
2009,09,22,08,04,11.30
2009,09,22,08,05,11.30
2009,09,22,08,06,11.40
2009,09,22,08,07,11.50
2009,09,22,08,08,11.60
2009,09,22,08,09,11.60
2009,09,22,08,10,11.70
2009,09,22,08,11,11.80
2009,09,22,08,12,11.80
2009,09,22,08,13,11.90
2009,09,22,08,14,12.00
2009,09,22,08,15,12.10
2009,09,22,08,16,12.20
2009,09,22,08,17,12.20
2009,09,22,08,18,12.30
2009,09,22,08,19,12.30
2009,09,22,08,20,12.40
2009,09,22,08,21,12.50
2009,09,22,08,22,12.50
2009,09,22,08,23,12.60
2009,09,22,08,24,12.60
2009,09,22,08,25,12.70
2009,09,22,08,26,12.80
2009,09,22,08,27,12.90
2009,09,22,08,28,13.00
2009,09,22,08,29,13.00
2009,09,22,08,30,13.10
2009,09,22,08,31,13.20
2009,09,22,08,32,13.30
2009,09,22,08,33,13.30
2009,09,22,08,34,13.40
2009,09,22,08,35,13.50
2009,09,22,08,36,13.60
2009,09,22,08,37,13.60
2009,09,22,08,38,13.70
2009,09,22,08,39,13.70
2009,09,22,08,40,13.70
2009,09,22,08,41,13.90
2009,09,22,08,42,13.90
2009,09,22,08,43,14.00
2009,09,22,08,44,14.20
2009,09,22,08,45,14.20
2009,09,22,08,46,14.30
2009,09,22,08,47,14.40
2009,09,22,08,48,14.50
2009,09,22,08,49,14.50
2009,09,22,08,50,14.60
2009,09,22,08,51,14.70
2009,09,22,08,52,14.70
2009,09,22,08,53,14.80
2009,09,22,08,54,14.90
2009,09,22,08,55,14.90
2009,09,22,08,56,15.10
2009,09,22,08,57,15.20
2009,09,22,08,58,15.30
2009,09,22,08,59,15.40
2009,09,22,09,00,15.50
2009,09,22,09,01,15.60
2009,09,22,09,02,15.70
2009,09,22,09,03,15.80
2009,09,22,09,04,15.80
2009,09,22,09,05,15.90
2009,09,22,09,06,16.10
2009,09,22,09,07,16.10
2009,09,22,09,08,16.20
2009,09,22,09,09,16.30
2009,09,22,09,10,16.30
2009,09,22,09,11,16.40
2009,09,22,09,12,16.40
2009,09,22,09,13,16.40
2009,09,22,09,14,16.50
2009,09,22,09,15,16.60
2009,09,22,09,16,16.60
2009,09,22,09,17,16.70
2009,09,22,09,18,16.70
2009,09,22,09,19,16.70
2009,09,22,09,20,16.70
2009,09,22,09,21,16.70
2009,09,22,09,22,16.70
2009,09,22,09,23,16.70
2009,09,22,09,24,16.70
2009,09,22,09,25,16.70
2009,09,22,09,26,16.70
2009,09,22,09,27,16.70
2009,09,22,09,28,16.70
2009,09,22,09,29,16.70
2009,09,22,09,30,16.80
2009,09,22,09,31,16.80
2009,09,22,09,32,16.90
2009,09,22,09,33,17.00
2009,09,22,09,34,17.10
2009,09,22,09,35,17.20
2009,09,22,09,36,17.30
2009,09,22,09,37,17.40
2009,09,22,09,38,17.50
2009,09,22,09,39,17.50
2009,09,22,09,40,17.60
2009,09,22,09,41,17.60
2009,09,22,09,42,17.70
2009,09,22,09,43,17.80
2009,09,22,09,44,17.80
2009,09,22,09,45,17.90
2009,09,22,09,46,17.90
2009,09,22,09,47,18.00
2009,09,22,09,48,18.10
2009,09,22,09,49,18.20
2009,09,22,09,50,18.20
2009,09,22,09,51,18.20
2009,09,22,09,52,18.30
2009,09,22,09,53,18.40
2009,09,22,09,54,18.50
2009,09,22,09,55,18.50
2009,09,22,09,56,18.60
2009,09,22,09,57,18.70
2009,09,22,09,58,18.70
2009,09,22,09,59,18.80
2009,09,22,10,00,18.80
2009,09,22,10,01,18.90
2009,09,22,10,02,18.90
2009,09,22,10,03,18.90
2009,09,22,10,04,18.90
2009,09,22,10,05,18.90
2009,09,22,10,06,18.90
2009,09,22,10,07,18.90
2009,09,22,10,08,18.90
2009,09,22,10,09,18.90
2009,09,22,10,10,18.90
2009,09,22,10,11,18.90
2009,09,22,10,12,18.90
2009,09,22,10,13,18.90
2009,09,22,10,14,18.90
2009,09,22,10,15,18.90
2009,09,22,10,16,19.00
2009,09,22,10,17,19.10
2009,09,22,10,18,19.10
2009,09,22,10,19,19.10
2009,09,22,10,20,19.10
2009,09,22,10,21,19.10
2009,09,22,10,22,19.10
2009,09,22,10,23,19.00
2009,09,22,10,24,18.90
2009,09,22,10,25,18.90
2009,09,22,10,26,18.90
2009,09,22,10,27,18.90
2009,09,22,10,28,18.90
2009,09,22,10,29,18.90
2009,09,22,10,30,18.90
2009,09,22,10,31,18.90
2009,09,22,10,32,18.90
2009,09,22,10,33,18.90
2009,09,22,10,34,18.90
2009,09,22,10,35,19.00
2009,09,22,10,36,19.10
2009,09,22,10,37,19.10
2009,09,22,10,38,19.10
2009,09,22,10,39,19.10
2009,09,22,10,40,19.10
2009,09,22,10,41,19.10
2009,09,22,10,42,19.10
2009,09,22,10,43,19.20
2009,09,22,10,44,19.20
2009,09,22,10,45,19.20
2009,09,22,10,46,19.30
2009,09,22,10,47,19.30
2009,09,22,10,48,19.40
2009,09,22,10,49,19.40
2009,09,22,10,50,19.50
2009,09,22,10,51,19.50
2009,09,22,10,52,19.50
2009,09,22,10,53,19.50
2009,09,22,10,54,19.50
2009,09,22,10,55,19.50
2009,09,22,10,56,19.50
2009,09,22,10,57,19.50
2009,09,22,10,58,19.50
2009,09,22,10,59,19.50
2009,09,22,11,00,19.50
2009,09,22,11,01,19.50
2009,09,22,11,02,19.60
2009,09,22,11,03,19.70
2009,09,22,11,04,19.70
2009,09,22,11,05,19.80
2009,09,22,11,06,19.80
2009,09,22,11,07,19.80
2009,09,22,11,08,19.80
2009,09,22,11,09,19.80
2009,09,22,11,10,19.80
2009,09,22,11,11,19.80
2009,09,22,11,12,19.80
2009,09,22,11,13,19.80
2009,09,22,11,14,19.80
2009,09,22,11,15,19.80
2009,09,22,11,16,19.80
2009,09,22,11,17,19.80
2009,09,22,11,18,19.80
2009,09,22,11,19,19.80
2009,09,22,11,20,19.80
2009,09,22,11,21,19.80
2009,09,22,11,22,19.80
2009,09,22,11,23,19.80
2009,09,22,11,24,19.80
2009,09,22,11,25,19.90
2009,09,22,11,26,19.90
2009,09,22,11,27,19.90
2009,09,22,11,28,20.10
2009,09,22,11,29,20.10
2009,09,22,11,30,20.20
2009,09,22,11,31,20.20
2009,09,22,11,32,20.20
2009,09,22,11,33,20.30
2009,09,22,11,34,20.40
2009,09,22,11,35,20.50
2009,09,22,11,36,20.60
2009,09,22,11,37,20.80
2009,09,22,11,38,20.80
2009,09,22,11,39,21.00
2009,09,22,11,40,21.00
2009,09,22,11,41,21.10
2009,09,22,11,42,21.30
2009,09,22,11,43,21.30
2009,09,22,11,44,21.40
2009,09,22,11,45,21.50
2009,09,22,11,46,21.60
2009,09,22,11,47,21.60
2009,09,22,11,48,21.70
2009,09,22,11,49,21.80
2009,09,22,11,50,21.80
2009,09,22,11,51,21.80
2009,09,22,11,52,21.80
2009,09,22,11,53,21.80
2009,09,22,11,54,21.80
2009,09,22,11,55,21.90
2009,09,22,11,56,21.90
2009,09,22,11,57,21.90
2009,09,22,11,58,21.90
2009,09,22,11,59,21.90
2009,09,22,12,00,21.90
2009,09,22,12,01,21.90
2009,09,22,12,02,21.80
2009,09,22,12,03,21.70
2009,09,22,12,04,21.60
2009,09,22,12,05,21.60
2009,09,22,12,06,21.50
2009,09,22,12,07,21.40
2009,09,22,12,08,21.30
2009,09,22,12,09,21.30
2009,09,22,12,10,21.30
2009,09,22,12,11,21.30
2009,09,22,12,12,21.30
2009,09,22,12,13,21.30
2009,09,22,12,14,21.30
2009,09,22,12,15,21.30
2009,09,22,12,16,21.30
2009,09,22,12,17,21.30
2009,09,22,12,18,21.30
2009,09,22,12,19,21.30
2009,09,22,12,20,21.30
2009,09,22,12,21,21.40
2009,09,22,12,22,21.50
2009,09,22,12,23,21.60
2009,09,22,12,24,21.60
2009,09,22,12,25,21.60
2009,09,22,12,26,21.60
2009,09,22,12,27,21.70
2009,09,22,12,28,21.70
2009,09,22,12,29,21.70
2009,09,22,12,30,21.80
2009,09,22,12,31,21.80
2009,09,22,12,32,21.80
2009,09,22,12,33,21.80
2009,09,22,12,34,21.80
2009,09,22,12,35,21.80
2009,09,22,12,36,21.80
2009,09,22,12,37,21.80
2009,09,22,12,38,21.80
2009,09,22,12,39,21.80
2009,09,22,12,40,21.80
2009,09,22,12,41,21.80
2009,09,22,12,42,21.80
2009,09,22,12,43,21.80
2009,09,22,12,44,21.80
2009,09,22,12,45,21.80
2009,09,22,12,46,21.80
2009,09,22,12,47,21.80
2009,09,22,12,48,21.80
2009,09,22,12,49,21.80
2009,09,22,12,50,21.90
2009,09,22,12,51,21.90
2009,09,22,12,52,21.90
2009,09,22,12,53,22.00
2009,09,22,12,54,22.10
2009,09,22,12,55,22.10
2009,09,22,12,56,22.10
2009,09,22,12,57,22.20
2009,09,22,12,58,22.20
2009,09,22,12,59,22.20
2009,09,22,13,00,22.30
2009,09,22,13,01,22.30
2009,09,22,13,02,22.40
2009,09,22,13,03,22.50
2009,09,22,13,04,22.50
2009,09,22,13,05,22.50
2009,09,22,13,06,22.60
2009,09,22,13,07,22.60
2009,09,22,13,08,22.60
2009,09,22,13,09,22.70
2009,09,22,13,10,22.80
2009,09,22,13,11,22.90
2009,09,22,13,12,22.90
2009,09,22,13,13,23.00
2009,09,22,13,14,23.10
2009,09,22,13,15,23.20
2009,09,22,13,16,23.20
2009,09,22,13,17,23.30
2009,09,22,13,18,23.30
2009,09,22,13,19,23.40
2009,09,22,13,20,23.50
2009,09,22,13,21,23.60
2009,09,22,13,22,23.70
2009,09,22,13,23,23.70
2009,09,22,13,24,23.70
2009,09,22,13,25,23.70
2009,09,22,13,26,23.70
2009,09,22,13,27,23.70
2009,09,22,13,28,23.70
2009,09,22,13,29,23.70
2009,09,22,13,30,23.70
2009,09,22,13,31,23.70
2009,09,22,13,32,23.70
2009,09,22,13,33,23.70
2009,09,22,13,34,23.70
2009,09,22,13,35,23.60
2009,09,22,13,36,23.60
2009,09,22,13,37,23.60
2009,09,22,13,38,23.60
2009,09,22,13,39,23.60
2009,09,22,13,40,23.60
2009,09,22,13,41,23.60
2009,09,22,13,42,23.60
2009,09,22,13,43,23.50
2009,09,22,13,44,23.40
2009,09,22,13,45,23.40
2009,09,22,13,46,23.40
2009,09,22,13,47,23.40
2009,09,22,13,48,23.40
2009,09,22,13,49,23.30
2009,09,22,13,50,23.30
2009,09,22,13,51,23.30
2009,09,22,13,52,23.30
2009,09,22,13,53,23.30
2009,09,22,13,54,23.40
2009,09,22,13,55,23.40
2009,09,22,13,56,23.40
2009,09,22,13,57,23.40
2009,09,22,13,58,23.40
2009,09,22,13,59,23.40
2009,09,22,14,00,23.40
2009,09,22,14,01,23.40
2009,09,22,14,02,23.40
2009,09,22,14,03,23.50
2009,09,22,14,04,23.50
2009,09,22,14,05,23.60
2009,09,22,14,06,23.60
2009,09,22,14,07,23.60
2009,09,22,14,08,23.60
2009,09,22,14,09,23.60
2009,09,22,14,10,23.60
2009,09,22,14,11,23.70
2009,09,22,14,12,23.70
2009,09,22,14,13,23.70
2009,09,22,14,14,23.70
2009,09,22,14,15,23.70
2009,09,22,14,16,23.70
2009,09,22,14,17,23.70
2009,09,22,14,18,23.70
2009,09,22,14,19,23.70
2009,09,22,14,20,23.70
2009,09,22,14,21,23.70
2009,09,22,14,22,23.70
2009,09,22,14,23,23.70
2009,09,22,14,24,23.70
2009,09,22,14,25,23.70
2009,09,22,14,26,23.70
2009,09,22,14,27,23.70
2009,09,22,14,28,23.70
2009,09,22,14,29,23.80
2009,09,22,14,30,23.80
2009,09,22,14,31,23.80
2009,09,22,14,32,23.90
2009,09,22,14,33,23.90
2009,09,22,14,34,23.90
2009,09,22,14,35,23.90
2009,09,22,14,36,23.90
2009,09,22,14,37,23.90
2009,09,22,14,38,23.90
2009,09,22,14,39,24.00
2009,09,22,14,40,24.10
2009,09,22,14,41,24.10
2009,09,22,14,42,24.10
2009,09,22,14,43,24.20
2009,09,22,14,44,24.30
2009,09,22,14,45,24.30
2009,09,22,14,46,24.30
2009,09,22,14,47,24.30
2009,09,22,14,48,24.30
2009,09,22,14,49,24.30
2009,09,22,14,50,24.30
2009,09,22,14,51,24.30
2009,09,22,14,52,24.30
2009,09,22,14,53,24.20
2009,09,22,14,54,24.20
2009,09,22,14,55,24.30
2009,09,22,14,56,24.30
2009,09,22,14,57,24.40
2009,09,22,14,58,24.50
2009,09,22,14,59,24.50
2009,09,22,15,00,24.60
2009,09,22,15,01,24.60
2009,09,22,15,02,24.60
2009,09,22,15,03,24.60
2009,09,22,15,04,24.60
2009,09,22,15,05,24.60
2009,09,22,15,06,24.50
2009,09,22,15,07,24.40
2009,09,22,15,08,24.40
2009,09,22,15,09,24.40
2009,09,22,15,10,24.40
2009,09,22,15,11,24.40
2009,09,22,15,12,24.40
2009,09,22,15,13,24.50
2009,09,22,15,14,24.50
2009,09,22,15,15,24.50
2009,09,22,15,16,24.50
2009,09,22,15,17,24.50
2009,09,22,15,18,24.50
2009,09,22,15,19,24.50
2009,09,22,15,20,24.50
2009,09,22,15,21,24.60
2009,09,22,15,22,24.60
2009,09,22,15,23,24.70
2009,09,22,15,24,24.70
2009,09,22,15,25,24.70
2009,09,22,15,26,24.70
2009,09,22,15,27,24.70
2009,09,22,15,28,24.70
2009,09,22,15,29,24.70
2009,09,22,15,30,24.70
2009,09,22,15,31,24.70
2009,09,22,15,32,24.70
2009,09,22,15,33,24.70
2009,09,22,15,34,24.70
2009,09,22,15,35,24.70
2009,09,22,15,36,24.70
2009,09,22,15,37,24.70
2009,09,22,15,38,24.60
2009,09,22,15,39,24.50
2009,09,22,15,40,24.50
2009,09,22,15,41,24.40
2009,09,22,15,42,24.40
2009,09,22,15,43,24.40
2009,09,22,15,44,24.40
2009,09,22,15,45,24.40
2009,09,22,15,46,24.40
2009,09,22,15,47,24.40
2009,09,22,15,48,24.40
2009,09,22,15,49,24.50
2009,09,22,15,50,24.50
2009,09,22,15,51,24.60
2009,09,22,15,52,24.60
2009,09,22,15,53,24.60
2009,09,22,15,54,24.60
2009,09,22,15,55,24.70
2009,09,22,15,56,24.70
2009,09,22,15,57,24.60
2009,09,22,15,58,24.60
2009,09,22,15,59,24.60
2009,09,22,16,00,24.60
2009,09,22,16,01,24.60
2009,09,22,16,02,24.50
2009,09,22,16,03,24.50
2009,09,22,16,04,24.50
2009,09,22,16,05,24.50
2009,09,22,16,06,24.50
2009,09,22,16,07,24.50
2009,09,22,16,08,24.40
2009,09,22,16,09,24.40
2009,09,22,16,10,24.40
2009,09,22,16,11,24.30
2009,09,22,16,12,24.30
2009,09,22,16,13,24.30
2009,09,22,16,14,24.30
2009,09,22,16,15,24.30
2009,09,22,16,16,24.40
2009,09,22,16,17,24.40
2009,09,22,16,18,24.50
2009,09,22,16,19,24.50
2009,09,22,16,20,24.50
2009,09,22,16,21,24.60
2009,09,22,16,22,24.60
2009,09,22,16,23,24.70
2009,09,22,16,24,24.70
2009,09,22,16,25,24.80
2009,09,22,16,26,24.80
2009,09,22,16,27,24.80
2009,09,22,16,28,24.90
2009,09,22,16,29,24.90
2009,09,22,16,30,24.90
2009,09,22,16,31,24.90
2009,09,22,16,32,24.90
2009,09,22,16,33,25.00
2009,09,22,16,34,25.00
2009,09,22,16,35,25.00
2009,09,22,16,36,25.00
2009,09,22,16,37,25.00
2009,09,22,16,38,25.00
2009,09,22,16,39,25.00
2009,09,22,16,40,24.90
2009,09,22,16,41,24.90
2009,09,22,16,42,24.90
2009,09,22,16,43,24.90
2009,09,22,16,44,25.00
2009,09,22,16,45,25.00
2009,09,22,16,46,25.00
2009,09,22,16,47,25.00
2009,09,22,16,48,25.00
2009,09,22,16,49,25.00
2009,09,22,16,50,25.00
2009,09,22,16,51,25.00
2009,09,22,16,52,24.90
2009,09,22,16,53,25.00
2009,09,22,16,54,25.00
2009,09,22,16,55,25.00
2009,09,22,16,56,25.00
2009,09,22,16,57,25.00
2009,09,22,16,58,25.10
2009,09,22,16,59,25.10
2009,09,22,17,00,25.10
2009,09,22,17,01,25.00
2009,09,22,17,02,25.00
2009,09,22,17,03,24.80
2009,09,22,17,04,24.80
2009,09,22,17,05,24.70
2009,09,22,17,06,24.70
2009,09,22,17,07,24.70
2009,09,22,17,08,24.70
2009,09,22,17,09,24.70
2009,09,22,17,10,24.60
2009,09,22,17,11,24.50
2009,09,22,17,12,24.40
2009,09,22,17,13,24.30
2009,09,22,17,14,24.20
2009,09,22,17,15,24.10
2009,09,22,17,16,23.90
2009,09,22,17,17,23.70
2009,09,22,17,18,23.60
2009,09,22,17,19,23.40
2009,09,22,17,20,23.30
2009,09,22,17,21,23.20
2009,09,22,17,22,23.20
2009,09,22,17,23,23.10
2009,09,22,17,24,23.10
2009,09,22,17,25,23.10
2009,09,22,17,26,23.10
2009,09,22,17,27,23.10
2009,09,22,17,28,23.00
2009,09,22,17,29,22.90
2009,09,22,17,30,22.90
2009,09,22,17,31,22.90
2009,09,22,17,32,22.90
2009,09,22,17,33,22.90
2009,09,22,17,34,22.90
2009,09,22,17,35,22.90
2009,09,22,17,36,22.90
2009,09,22,17,37,22.90
2009,09,22,17,38,22.90
2009,09,22,17,39,22.90
2009,09,22,17,40,22.90
2009,09,22,17,41,22.90
2009,09,22,17,42,22.90
2009,09,22,17,43,22.90
2009,09,22,17,44,22.90
2009,09,22,17,45,22.90
2009,09,22,17,46,22.90
2009,09,22,17,47,22.90
2009,09,22,17,48,22.80
2009,09,22,17,49,22.80
2009,09,22,17,50,22.80
2009,09,22,17,51,22.80
2009,09,22,17,52,22.70
2009,09,22,17,53,22.70